PROBA-V

Last updated on Fri Dec 29 2023 00:03:29 GMT+0000 (Greenwich Mean Time)

1 39159U 13021A 23362.46535601 .00000142 00000+0 80838-4 0 9997 2 39159 98.3109 13.5331 0003046 248.7890 111.2964 14.23192553552838
UTC large
Height (km)
Speed (km/s)
/
Latitude / Longitude
Inclination (degrees)
Orbital Period (minutes)
Azimuth
Elevation
Range (km)
Doppler Factor

Next 0 passes for location: London (51.5072 / 0.1276)

Sorry there are no passes over London.